Santa Fe, NM

11:08 PM MDT on June 28, 2017 (GMT -0600)
Santa Fe Municipal

Weather History for KSAF - September, 2012

Change the Weather History Date:

Saturday, September 22, 2012

  Actual Average Record
Temperature  
Mean Temperature 68 °F -  
Max Temperature 84 °F 76 °F 84 °F (2012)
Min Temperature 52 °F 42 °F 37 °F (1980)
Cooling Degree Days 3    
Growing Degree Days 18 (Base 50)    
Moisture  
Dew Point 24 °F    
Average Humidity 23    
Maximum Humidity 40    
Minimum Humidity 9    
Precipitation  
Precipitation 0.00 in - - ()
Sea Level Pressure  
Sea Level Pressure 30.02 in    
Wind  
Wind Speed 6 mph (North)    
Max Wind Speed 14 mph    
Max Gust Speed 21 mph    
Visibility 10 miles    
Events      
Averages and records for this station are not official NWS values.
T = Trace of Precipitation, MM = Missing Value Source: NWS Daily Summary

Daily Weather History Graph

Daily Weather History Graph

Search for Another Location

Airport or City:

Trip Planner

Search our weather history database for the weather conditions in past years. The results will help you decide how hot, cold, wet, or windy it might be!

Date:

Astronomy

Sep. 22, 2012 Rise Set
Actual Time 6:52 AM MDT 7:00 PM MDT
Civil Twilight 6:27 AM MDT 7:25 PM MDT
Nautical Twilight 5:57 AM MDT 7:55 PM MDT
Astronomical Twilight 5:27 AM MDT 8:25 PM MDT
Moon 2:01 PM MDT (9/22) No Moon Set
Length of Visible Light 12h 58m
Length of Day
12h 07m
Waxing Crescent, 49% of the Moon is Illuminated
Sep 22
Waxing Crescent
Sep 22
First Quarter
Sep 29
Full
Oct 8
Last Quarter
Oct 15
New

Hourly Weather History & Observations

Time (MDT) Temp. Dew Point Humidity Pressure Visibility Wind Dir Wind Speed Gust Speed Precip Events Conditions
12:53 AM 57.0 °F 25.0 °F 29% 29.98 in 10.0 mi Calm Calm - N/A   Clear
1:53 AM 57.0 °F 26.1 °F 30% 29.99 in 10.0 mi NW 4.6 mph - N/A   Clear
2:53 AM 59.0 °F 27.0 °F 29% 29.99 in 10.0 mi Calm Calm - N/A   Clear
3:53 AM 55.0 °F 30.9 °F 40% 30.00 in 10.0 mi NNE 5.8 mph - N/A   Clear
4:53 AM 53.1 °F 27.0 °F 37% 30.01 in 10.0 mi North 9.2 mph - N/A   Clear
5:53 AM 53.1 °F 26.1 °F 35% 30.03 in 10.0 mi North 12.7 mph - N/A   Clear
6:53 AM 52.0 °F 26.1 °F 37% 30.07 in 10.0 mi North 11.5 mph - N/A   Clear
7:53 AM 54.0 °F 26.1 °F 34% 30.09 in 10.0 mi North 12.7 mph - N/A   Clear
8:53 AM 61.0 °F 26.1 °F 26% 30.10 in 10.0 mi North 12.7 mph - N/A   Clear
9:53 AM 68.0 °F 28.0 °F 22% 30.09 in 10.0 mi North 12.7 mph - N/A   Clear
10:53 AM 73.9 °F 28.9 °F 19% 30.09 in 10.0 mi North 6.9 mph - N/A   Clear
12:53 PM 82.0 °F 19.9 °F 10% 30.03 in 10.0 mi WSW 9.2 mph - N/A   Clear
2:53 PM 84.9 °F 19.0 °F 9% 29.98 in 10.0 mi SW 13.8 mph 20.7 mph N/A   Clear
3:53 PM 82.0 °F 18.0 °F 9% 29.99 in 10.0 mi South 4.6 mph - N/A   Clear
4:53 PM 82.9 °F 19.0 °F 9% 29.98 in 10.0 mi WNW 6.9 mph - N/A   Clear
5:53 PM 81.0 °F 19.0 °F 10% 29.99 in 10.0 mi WSW 6.9 mph - N/A   Clear
6:53 PM 75.9 °F 19.0 °F 12% 30.00 in 10.0 mi WSW 3.5 mph - N/A   Clear
7:53 PM 69.1 °F 21.9 °F 17% 30.03 in 10.0 mi SSE 4.6 mph - N/A   Clear
8:53 PM 69.1 °F 19.9 °F 15% 30.02 in 10.0 mi Calm Calm - N/A   Clear
9:53 PM 64.9 °F 23.0 °F 20% 30.01 in 10.0 mi East 3.5 mph - N/A   Clear
10:53 PM 64.0 °F 25.0 °F 23% 30.01 in 10.0 mi ESE 4.6 mph - N/A   Clear
11:53 PM 64.0 °F 26.1 °F 24% 30.00 in 10.0 mi ESE 9.2 mph - N/A   Clear